• In Uzbekistan
  • List of Countries
  • For 7 days
  • Water Temperature
  • Weather Map
  • Weather Widgets
  • user-avatar
    Login

    Hourly Weather Tirana

    Today, 19 January, Sunday

    Time Temperature Precipitation Wind Pressure Humidity
    00:00 +8°C° 0.2 mm 3 mps 757 mmHg 83%
    01:00 +6°C° 0 mm 4 mps 756 mmHg 82%
    02:00 +6°C° 0.3 mm 4 mps 756 mmHg 81%
    03:00 +6°C° 0.3 mm 4 mps 756 mmHg 79%
    04:00 +6°C° 0.3 mm 4 mps 756 mmHg 78%
    05:00 +7°C° 0.2 mm 3 mps 757 mmHg 76%
    06:00 +7°C° 0.2 mm 3 mps 757 mmHg 74%
    07:00 +8°C° 0.2 mm 3 mps 757 mmHg 72%
    08:00 +9°C° 0 mm 3 mps 757 mmHg 69%
    09:00 +10°C° 0 mm 3 mps 757 mmHg 67%
    10:00 +11°C° 0 mm 3 mps 757 mmHg 64%
    11:00 +11°C° 0 mm 3 mps 757 mmHg 62%
    12:00 +13°C° 0 mm 2 mps 757 mmHg 60%
    13:00 +14°C° 0 mm 2 mps 757 mmHg 58%
    14:00 +13°C° 0 mm 2 mps 758 mmHg 63%
    15:00 +13°C° 0 mm 1 mps 758 mmHg 67%
    16:00 +12°C° 0 mm 1 mps 758 mmHg 71%
    17:00 +11°C° 0 mm 1 mps 759 mmHg 74%
    18:00 +9°C° 0 mm 2 mps 760 mmHg 77%
    19:00 +8°C° 0 mm 3 mps 760 mmHg 80%
    20:00 +8°C° 0 mm 3 mps 761 mmHg 79%
    21:00 +8°C° 0 mm 3 mps 762 mmHg 78%
    22:00 +7°C° 0 mm 3 mps 762 mmHg 77%
    23:00 +7°C° 0 mm 3 mps 763 mmHg 76%

    Tomorrow, 20 January, Monday

    Time Temperature Precipitation Wind Pressure Humidity
    00:00 +7°C° 0 mm 3 mps 763 mmHg 75%
    01:00 +5°C° 0 mm 3 mps 764 mmHg 74%
    02:00 +5°C° 0 mm 3 mps 764 mmHg 73%
    03:00 +5°C° 0 mm 3 mps 764 mmHg 72%
    04:00 +5°C° 0 mm 4 mps 764 mmHg 72%
    05:00 +4°C° 0 mm 4 mps 765 mmHg 71%
    06:00 +4°C° 0 mm 4 mps 765 mmHg 71%
    07:00 +4°C° 0 mm 3 mps 766 mmHg 71%
    08:00 +5°C° 0 mm 3 mps 766 mmHg 66%
    09:00 +8°C° 0 mm 3 mps 767 mmHg 62%
    10:00 +10°C° 0 mm 3 mps 767 mmHg 57%
    11:00 +10°C° 0 mm 3 mps 767 mmHg 54%
    12:00 +11°C° 0 mm 3 mps 768 mmHg 51%
    13:00 +13°C° 0 mm 2 mps 768 mmHg 48%
    14:00 +12°C° 0 mm 3 mps 768 mmHg 52%
    15:00 +11°C° 0 mm 3 mps 768 mmHg 55%
    16:00 +10°C° 0 mm 3 mps 769 mmHg 59%
    17:00 +9°C° 0 mm 3 mps 769 mmHg 60%
    18:00 +8°C° 0 mm 3 mps 769 mmHg 60%
    19:00 +7°C° 0 mm 3 mps 770 mmHg 61%
    20:00 +7°C° 0 mm 3 mps 770 mmHg 59%
    21:00 +5°C° 0 mm 3 mps 771 mmHg 58%
    22:00 +5°C° 0 mm 3 mps 771 mmHg 56%
    23:00 +5°C° 0 mm 3 mps 771 mmHg 55%

    Day after tomorrow, 21 January, Tuesday

    Time Temperature Precipitation Wind Pressure Humidity
    00:00 +4°C° 0 mm 3 mps 771 mmHg 53%
    01:00 +4°C° 0 mm 3 mps 771 mmHg 52%
    02:00 +4°C° 0 mm 3 mps 771 mmHg 51%
    03:00 +4°C° 0 mm 3 mps 771 mmHg 50%
    04:00 +4°C° 0 mm 2 mps 771 mmHg 49%
    05:00 +4°C° 0 mm 2 mps 771 mmHg 48%
    06:00 +4°C° 0 mm 2 mps 771 mmHg 47%
    07:00 +4°C° 0 mm 2 mps 771 mmHg 45%
    08:00 +6°C° 0 mm 2 mps 771 mmHg 42%
    09:00 +7°C° 0 mm 2 mps 771 mmHg 40%
    10:00 +9°C° 0 mm 2 mps 771 mmHg 37%
    11:00 +10°C° 0 mm 2 mps 771 mmHg 36%
    12:00 +12°C° 0 mm 2 mps 770 mmHg 35%
    13:00 +13°C° 0 mm 2 mps 770 mmHg 33%
    14:00 +11°C° 0 mm 3 mps 770 mmHg 40%
    15:00 +10°C° 0 mm 3 mps 769 mmHg 46%
    16:00 +9°C° 0 mm 3 mps 769 mmHg 52%
    17:00 +8°C° 0 mm 3 mps 769 mmHg 53%
    18:00 +7°C° 0 mm 3 mps 769 mmHg 54%
    19:00 +5°C° 0 mm 3 mps 769 mmHg 56%
    20:00 +5°C° 0 mm 3 mps 769 mmHg 54%
    21:00 +6°C° 0 mm 2 mps 769 mmHg 53%
    22:00 +5°C° 0 mm 2 mps 768 mmHg 52%
    23:00 +5°C° 0 mm 2 mps 768 mmHg 51%

    22 January, Wednesday

    Time Temperature Precipitation Wind Pressure Humidity
    00:00 +5°C° 0 mm 2 mps 768 mmHg 51%
    01:00 +5°C° 0 mm 2 mps 768 mmHg 50%
    02:00 +4°C° 0 mm 2 mps 767 mmHg 49%
    03:00 +4°C° 0 mm 2 mps 767 mmHg 47%
    04:00 +5°C° 0 mm 1 mps 767 mmHg 46%
    05:00 +5°C° 0 mm 1 mps 767 mmHg 45%
    06:00 +5°C° 0 mm 1 mps 766 mmHg 44%
    07:00 +5°C° 0 mm 1 mps 766 mmHg 44%
    08:00 +6°C° 0 mm 1 mps 766 mmHg 42%
    09:00 +8°C° 0 mm 1 mps 766 mmHg 40%
    10:00 +10°C° 0 mm 1 mps 766 mmHg 38%
    11:00 +11°C° 0 mm 1 mps 765 mmHg 38%
    12:00 +11°C° 0 mm 1 mps 765 mmHg 38%
    13:00 +12°C° 0 mm 1 mps 764 mmHg 38%
    14:00 +12°C° 0 mm 1 mps 764 mmHg 44%
    15:00 +11°C° 0 mm 1 mps 764 mmHg 49%
    16:00 +9°C° 0 mm 2 mps 764 mmHg 55%
    17:00 +9°C° 0 mm 1 mps 763 mmHg 57%
    18:00 +8°C° 0 mm 1 mps 763 mmHg 59%
    19:00 +7°C° 0 mm 1 mps 763 mmHg 61%
    20:00 +7°C° 0 mm 1 mps 763 mmHg 61%
    21:00 +6°C° 0 mm 1 mps 763 mmHg 61%
    22:00 +6°C° 0 mm 1 mps 763 mmHg 61%
    23:00 +5°C° 0 mm 2 mps 763 mmHg 61%

    23 January, Thursday

    Time Temperature Precipitation Wind Pressure Humidity
    00:00 +5°C° 0 mm 2 mps 762 mmHg 61%
    01:00 +5°C° 0 mm 2 mps 762 mmHg 61%
    02:00 +4°C° 0 mm 2 mps 762 mmHg 61%
    03:00 +4°C° 0 mm 2 mps 762 mmHg 61%
    04:00 +4°C° 0 mm 2 mps 762 mmHg 60%
    05:00 +4°C° 0 mm 2 mps 762 mmHg 60%
    06:00 +4°C° 0 mm 2 mps 761 mmHg 60%
    07:00 +4°C° 0 mm 2 mps 761 mmHg 60%
    08:00 +6°C° 0 mm 2 mps 761 mmHg 56%
    09:00 +8°C° 0 mm 1 mps 761 mmHg 53%
    10:00 +10°C° 0 mm 1 mps 761 mmHg 50%
    11:00 +11°C° 0 mm 1 mps 761 mmHg 47%
    12:00 +12°C° 0 mm 1 mps 761 mmHg 45%
    13:00 +13°C° 0 mm 1 mps 761 mmHg 43%
    14:00 +12°C° 0 mm 2 mps 761 mmHg 47%
    15:00 +12°C° 0 mm 2 mps 761 mmHg 52%
    16:00 +10°C° 0 mm 3 mps 761 mmHg 56%
    17:00 +9°C° 0 mm 3 mps 761 mmHg 57%
    18:00 +8°C° 0 mm 3 mps 761 mmHg 58%
    19:00 +7°C° 0 mm 3 mps 762 mmHg 58%
    20:00 +7°C° 0 mm 3 mps 762 mmHg 57%
    21:00 +7°C° 0 mm 3 mps 762 mmHg 56%
    22:00 +7°C° 0 mm 3 mps 763 mmHg 54%
    23:00 +5°C° 0 mm 3 mps 763 mmHg 54%

    24 January, Friday

    Time Temperature Precipitation Wind Pressure Humidity
    00:00 +5°C° 0 mm 3 mps 763 mmHg 54%
    01:00 +6°C° 0 mm 2 mps 763 mmHg 54%
    02:00 +5°C° 0 mm 3 mps 763 mmHg 54%
    03:00 +4°C° 0 mm 3 mps 763 mmHg 55%
    04:00 +4°C° 0 mm 3 mps 763 mmHg 55%
    05:00 +4°C° 0 mm 3 mps 764 mmHg 54%
    06:00 +4°C° 0 mm 3 mps 764 mmHg 54%
    07:00 +4°C° 0 mm 3 mps 764 mmHg 53%
    08:00 +7°C° 0 mm 3 mps 764 mmHg 51%
    09:00 +9°C° 0 mm 3 mps 765 mmHg 48%
    10:00 +11°C° 0 mm 3 mps 765 mmHg 46%
    11:00 +12°C° 0 mm 3 mps 765 mmHg 45%
    12:00 +12°C° 0 mm 3 mps 764 mmHg 45%
    13:00 +13°C° 0 mm 3 mps 764 mmHg 44%
    14:00 +13°C° 0 mm 3 mps 764 mmHg 49%
    15:00 +12°C° 0 mm 3 mps 764 mmHg 54%
    16:00 +11°C° 0 mm 3 mps 764 mmHg 59%
    17:00 +10°C° 0 mm 3 mps 764 mmHg 62%
    18:00 +9°C° 0 mm 3 mps 764 mmHg 65%
    19:00 +7°C° 0 mm 4 mps 764 mmHg 68%
    20:00 +7°C° 0 mm 4 mps 764 mmHg 69%
    21:00 +8°C° 0 mm 3 mps 764 mmHg 69%
    22:00 +7°C° 0 mm 3 mps 764 mmHg 70%
    23:00 +7°C° 0 mm 3 mps 764 mmHg 69%
    Show more